Location: Katlewo
(53.4057°N, 19.8111°E)
Time: 23:56:07
(UTC+02:00)

ISS - Visible Passes

Search period start: 20 September 2018 00:00
Search period end: 30 September 2018 00:00
Orbit: 403 x 408 km, 51.6° (Epoch: 20 September)

Date Brightness Start Highest point End Pass type
(mag) Time Alt. Az. Time Alt. Az. Time Alt. Az.
22 Sep -1.3 20:28:39 10° S 20:28:50 11° S 20:28:50 11° S visible
23 Sep -1.6 19:38:04 10° SSE 19:39:17 12° SE 19:39:35 12° SE visible
23 Sep -1.0 21:12:03 10° SW 21:12:18 12° SW 21:12:18 12° SW visible
24 Sep -2.5 20:20:30 10° SW 20:22:51 26° S 20:22:51 26° S visible
25 Sep -2.2 19:29:09 10° SSW 19:31:39 20° SSE 19:33:16 15° ESE visible
25 Sep -1.9 21:04:29 10° WSW 21:05:57 23° SW 21:05:57 23° SW visible
26 Sep -3.4 20:12:44 10° SW 20:15:53 42° SSE 20:16:13 40° SE visible
27 Sep -2.8 19:21:06 10° SW 19:24:05 31° SSE 19:26:24 14° E visible
27 Sep -2.4 20:57:02 10° WSW 20:59:04 34° WSW 20:59:04 34° WSW visible
28 Sep -3.6 20:05:10 10° WSW 20:08:25 56° S 20:09:11 43° ESE visible
28 Sep -0.7 21:41:30 10° W 21:41:51 12° W 21:41:51 12° W visible
29 Sep -3.3 19:13:21 10° WSW 19:16:32 46° SSE 19:19:13 13° E visible
29 Sep -2.7 20:49:35 10° W 20:51:53 40° WSW 20:51:53 40° WSW visible
